STARLINK-35992

Last updated on Mon Dec 15 2025 00:02:12 GMT+0000 (Coordinated Universal Time)

1 66852U 25281E 25348.25003472 -.01190324 00000+0 -49062-2 0 9994 2 66852 43.0006 113.0176 0001600 270.3082 259.4477 15.87317939 1642
UTC large
Height (km)
Speed (km/s)
/
Latitude / Longitude
Inclination (degrees)
Orbital Period (minutes)
Azimuth
Elevation
Range (km)
Doppler Factor

Next 0 passes for location: London (51.5072 / 0.1276)

Sorry there are no passes over London.